| time (UTC) | temp F | wind direction | speed knots | gust knots | rain 1hr in | rain 24hr in | rain mn in | humidity % | barometer mb |
| 20260902120029 | 78 | 234 | 4.3 | 6.1 | 0.00 | 0.00 | 0.00 | 98 | 1014.8 |
| 20260902114534 | 78 | 223 | 4.3 | 7.8 | 0.00 | 0.00 | 0.00 | 98 | 1014.9 |
| 20260902113027 | 78 | 238 | 5.2 | 8.7 | 0.00 | 0.00 | 0.00 | 98 | 1014.8 |
| 20260902111537 | 78 | 232 | 5.2 | 9.6 | 0.00 | 0.00 | 0.00 | 97 | 1014.6 |
| 20260902110036 | 78 | 211 | 5.2 | 7.8 | 0.00 | 0.00 | 0.00 | 97 | 1014.6 |
| 20260902104536 | 78 | 226 | 4.3 | 7.8 | 0.00 | 0.00 | 0.00 | 97 | 1014.5 |
| 20260902103022 | 78 | 227 | 3.5 | 6.1 | 0.00 | 0.00 | 0.00 | 97 | 1014.7 |
| 20260902101521 | 78 | 225 | 5.2 | 7.8 | 0.00 | 0.00 | 0.00 | 97 | 1014.6 |
| 20260902100030 | 78 | 236 | 3.5 | 6.1 | 0.00 | 0.00 | 0.00 | 97 | 1014.4 |
| 20260902094522 | 79 | 232 | 3.5 | 7.8 | 0.00 | 0.00 | 0.00 | 97 | 1014.5 |
| 20260902093017 | 79 | 225 | 2.6 | 4.3 | 0.00 | 0.00 | 0.00 | 97 | 1014.4 |
| 20260902091517 | 79 | 231 | 2.6 | 7.0 | 0.00 | 0.00 | 0.00 | 97 | 1014.2 |
| 20260902090014 | 78 | 222 | 3.5 | 5.2 | 0.00 | 0.00 | 0.00 | 97 | 1014.3 |
| 20260902084513 | 78 | 238 | 2.6 | 4.3 | 0.00 | 0.00 | 0.00 | 97 | 1014.5 |
| 20260902083012 | 78 | 229 | 2.6 | 7.8 | 0.00 | 0.00 | 0.00 | 96 | 1014.4 |
| 20260902081516 | 78 | 229 | 4.3 | 7.8 | 0.00 | 0.00 | 0.00 | 96 | 1014.4 |
| 20260902080010 | 78 | 231 | 4.3 | 6.1 | 0.00 | 0.00 | 0.00 | 96 | 1014.5 |
| 20260902074508 | 78 | 254 | 3.5 | 6.1 | 0.00 | 0.00 | 0.00 | 95 | 1014.6 |
| 20260902073007 | 78 | 257 | 1.7 | 4.3 | 0.00 | 0.00 | 0.00 | 95 | 1014.7 |
| 20260902071511 | 78 | 228 | 2.6 | 4.3 | 0.00 | 0.00 | 0.00 | 95 | 1014.8 |
| 20260902070008 | 78 | 256 | 1.7 | 2.6 | 0.00 | 0.00 | 0.00 | 95 | 1014.8 |
| 20260902064503 | 78 | 226 | 1.7 | 3.5 | 0.00 | 0.00 | 0.00 | 94 | 1014.7 |
| 20260902063007 | 78 | 229 | 2.6 | 4.3 | 0.00 | 0.00 | 0.00 | 94 | 1014.8 |
| 20260902061503 | 78 | 227 | 2.6 | 4.3 | 0.00 | 0.00 | 0.00 | 94 | 1014.8 |
| 20260902060006 | 79 | 228 | 1.7 | 2.6 | 0.00 | 0.00 | 0.00 | 93 | 1014.9 |
| 20260902054605 | 79 | 198 | 0.0 | 3.5 | 0.00 | 0.00 | 0.00 | 94 | 1014.8 |
| 20260902053059 | 79 | 190 | 0.0 | 0.0 | 0.00 | 0.00 | 0.00 | 94 | 1014.8 |
| 20260902051558 | 80 | 190 | 0.0 | 0.0 | 0.00 | 0.00 | 0.00 | 93 | 1014.6 |
| 20260902044552 | 81 | 155 | 0.0 | 0.0 | 0.00 | 0.00 | 0.00 | 91 | 1014.7 |
| 20260902043053 | 81 | 155 | 0.0 | 0.0 | 0.00 | 0.00 | 0.00 | 90 | 1014.8 |
| 20260902041604 | 81 | 155 | 0.0 | 0.0 | 0.00 | 0.00 | 0.00 | 90 | 1014.8 |
| 20260902040050 | 81 | 59 | 0.0 | 0.0 | 0.00 | 0.00 | 0.00 | 90 | 1014.9 |
| 20260902034554 | 81 | 59 | 0.0 | 0.0 | 0.00 | 0.00 | 0.00 | 90 | 1014.8 |
| 20260902033104 | 81 | 59 | 0.0 | 0.0 | 0.00 | 0.00 | 0.00 | 89 | 1014.6 |
| 20260902031549 | 82 | 59 | 0.0 | 0.0 | 0.00 | 0.00 | 0.00 | 88 | 1014.6 |
| 20260902030048 | 82 | 59 | 0.0 | 0.0 | 0.00 | 0.00 | 0.00 | 89 | 1014.5 |
| 20260902024549 | 82 | 183 | 0.0 | 0.0 | 0.00 | 0.00 | 0.00 | 89 | 1014.3 |
| 20260902023048 | 82 | 183 | 0.0 | 1.7 | 0.00 | 0.00 | 0.00 | 89 | 1014.0 |
| 20260902021607 | 82 | 183 | 0.0 | 2.6 | 0.00 | 0.00 | 0.00 | 89 | 1013.9 |
| 20260902020055 | 82 | 191 | 4.3 | 6.1 | 0.00 | 0.00 | 0.00 | 88 | 1013.8 |
| 20260902014547 | 83 | 169 | 2.6 | 3.5 | 0.00 | 0.00 | 0.00 | 86 | 1013.5 |
| 20260902013046 | 83 | 150 | 1.7 | 3.5 | 0.00 | 0.00 | 0.00 | 83 | 1013.5 |
| 20260902011548 | 84 | 135 | 2.6 | 6.1 | 0.00 | 0.00 | 0.00 | 81 | 1013.3 |
| 20260902010056 | 85 | 143 | 5.2 | 8.7 | 0.00 | 0.00 | 0.00 | 78 | 1013.2 |
| 20260902004546 | 86 | 149 | 3.5 | 7.8 | 0.00 | 0.00 | 0.00 | 73 | 1013.2 |
| 20260902003042 | 88 | 86 | 3.5 | 7.0 | 0.00 | 0.00 | 0.00 | 64 | 1013.0 |
| 20260902001541 | 89 | 92 | 2.6 | 5.2 | 0.00 | 0.00 | 0.00 | 65 | 1013.0 |
| 20260902000051 | 89 | 106 | 4.3 | 7.0 | 0.00 | 0.00 | 0.00 | 64 | 1013.1 |
| 20260901234604 | 90 | 66 | 3.5 | 8.7 | 0.00 | 0.00 | 0.00 | 62 | 1012.9 |
| 20260901233040 | 91 | 88 | 5.2 | 9.6 | 0.00 | 0.00 | 0.00 | 61 | 1013.1 |
| 20260901231548 | 92 | 92 | 6.1 | 10.4 | 0.00 | 0.00 | 0.00 | 58 | 1013.1 |
| 20260901230056 | 92 | 76 | 3.5 | 5.2 | 0.00 | 0.00 | 0.00 | 63 | 1013.1 |
| 20260901224538 | 91 | 103 | 4.3 | 7.0 | 0.00 | 0.00 | 0.00 | 63 | 1012.9 |
| 20260901223059 | 91 | 100 | 3.5 | 6.1 | 0.00 | 0.00 | 0.00 | 63 | 1012.8 |
| 20260901221537 | 91 | 94 | 1.7 | 7.0 | 0.00 | 0.00 | 0.00 | 65 | 1013.1 |
| 20260901220035 | 91 | 51 | 3.5 | 7.8 | 0.00 | 0.00 | 0.00 | 65 | 1013.3 |
| 20260901214531 | 91 | 95 | 4.3 | 7.8 | 0.00 | 0.00 | 0.00 | 66 | 1013.4 |
| 20260901213030 | 91 | 105 | 6.1 | 9.6 | 0.00 | 0.00 | 0.00 | 65 | 1013.4 |
| 20260901211541 | 92 | 118 | 3.5 | 9.6 | 0.00 | 0.00 | 0.00 | 65 | 1013.4 |
| 20260901210027 | 91 | 111 | 5.2 | 7.8 | 0.00 | 0.00 | 0.00 | 65 | 1013.6 |
| 20260901204539 | 90 | 94 | 4.3 | 8.7 | 0.00 | 0.00 | 0.00 | 67 | 1013.6 |
| 20260901203026 | 90 | 95 | 6.1 | 10.4 | 0.00 | 0.00 | 0.00 | 66 | 1014.0 |
| 20260901201523 | 90 | 97 | 7.0 | 9.6 | 0.00 | 0.00 | 0.00 | 69 | 1014.2 |
| 20260901200035 | 91 | 80 | 7.8 | 12.2 | 0.00 | 0.00 | 0.00 | 66 | 1014.2 |
| 20260901194522 | 91 | 71 | 3.5 | 7.0 | 0.00 | 0.00 | 0.00 | 64 | 1014.3 |
| 20260901193019 | 92 | 48 | 0.9 | 7.0 | 0.00 | 0.00 | 0.00 | 62 | 1014.5 |
| 20260901191521 | 92 | 41 | 2.6 | 5.2 | 0.00 | 0.00 | 0.00 | 62 | 1014.8 |
| 20260901190023 | 92 | 69 | 0.9 | 8.7 | 0.00 | 0.00 | 0.00 | 65 | 1014.9 |
| 20260901184519 | 92 | 90 | 5.2 | 7.8 | 0.00 | 0.00 | 0.00 | 64 | 1015.0 |
| 20260901183031 | 91 | 27 | 3.5 | 8.7 | 0.00 | 0.00 | 0.00 | 64 | 1015.2 |
| 20260901181507 | 91 | 24 | 4.3 | 8.7 | 0.00 | 0.00 | 0.00 | 66 | 1015.8 |
| 20260901180003 | 89 | 57 | 2.6 | 7.8 | 0.00 | 0.00 | 0.00 | 68 | 1015.8 |
| 20260901174501 | 89 | 42 | 2.6 | 8.7 | 0.00 | 0.00 | 0.00 | 69 | 1016.1 |
| 20260901173110 | 88 | 40 | 2.6 | 9.6 | 0.00 | 0.00 | 0.00 | 70 | 1016.2 |
| 20260901171612 | 89 | 82 | 3.5 | 5.2 | 0.00 | 0.00 | 0.00 | 66 | 1016.4 |
| 20260901164630 | 88 | 17 | 1.7 | 5.2 | 0.00 | 0.00 | 0.00 | 67 | 1016.5 |
| 20260901163055 | 88 | 355 | 1.7 | 4.3 | 0.00 | 0.00 | 0.00 | 68 | 1016.7 |
| 20260901161552 | 87 | 36 | 0.0 | 7.8 | 0.00 | 0.00 | 0.00 | 71 | 1016.6 |
| 20260901160054 | 87 | 5 | 1.7 | 5.2 | 0.00 | 0.00 | 0.00 | 70 | 1016.5 |
| 20260901154550 | 87 | 76 | 2.6 | 7.0 | 0.00 | 0.00 | 0.00 | 72 | 1016.7 |
| 20260901153048 | 86 | 11 | 0.9 | 5.2 | 0.00 | 0.00 | 0.00 | 74 | 1016.8 |
| 20260901151547 | 85 | 49 | 2.6 | 5.2 | 0.00 | 0.00 | 0.00 | 79 | 1016.6 |
| 20260901150041 | 84 | 74 | 1.7 | 4.3 | 0.00 | 0.00 | 0.00 | 85 | 1016.7 |
| 20260901144540 | 82 | 360 | 0.9 | 4.3 | 0.00 | 0.00 | 0.00 | 88 | 1016.7 |
| 20260901143040 | 81 | 57 | 2.6 | 4.3 | 0.00 | 0.00 | 0.00 | 90 | 1016.7 |
| 20260901141531 | 81 | 35 | 0.9 | 4.3 | 0.00 | 0.00 | 0.00 | 92 | 1016.6 |
| 20260901140031 | 80 | 306 | 0.9 | 4.3 | 0.00 | 0.00 | 0.00 | 94 | 1016.9 |
| 20260901134524 | 79 | 13 | 0.9 | 3.5 | 0.00 | 0.00 | 0.00 | 95 | 1016.8 |
| 20260901133035 | 79 | 338 | 0.9 | 3.5 | 0.00 | 0.00 | 0.00 | 95 | 1016.6 |
| 20260901131521 | 78 | 342 | 1.7 | 3.5 | 0.00 | 0.00 | 0.00 | 97 | 1016.7 |
| 20260901130020 | 77 | 355 | 0.9 | 2.6 | 0.00 | 0.00 | 0.00 | 97 | 1016.4 |
| 20260901124518 | 76 | 292 | 0.0 | 0.0 | 0.00 | 0.00 | 0.00 | 97 | 1016.3 |
| 20260901123017 | 76 | 292 | 0.0 | 2.6 | 0.00 | 0.00 | 0.00 | 98 | 1016.0 |
| 20260901121519 | 76 | 311 | 0.0 | 2.6 | 0.00 | 0.00 | 0.00 | 97 | 1015.8 |